Weather History for Llano, TX

Change the Weather History Date:

Wednesday, April 9, 2014

  Actual Average (KBMQ) Record (KBMQ)
Temperature  
Mean Temperature 64 °F -  
Max Temperature 87 °F 73 °F 93 °F (2009)
Min Temperature 42 °F 51 °F 36 °F (2003)
Growing Degree Days 14 (Base 50)    
Moisture  
Dew Point 36 °F    
Average Humidity 38    
Maximum Humidity 81    
Minimum Humidity 13    
Precipitation  
Precipitation 0.00 in - - ()
Sea Level Pressure  
Sea Level Pressure 30.18 in    
Wind  
Wind Speed 3 mph (South)    
Max Wind Speed 14 mph    
Max Gust Speed 17 mph    
Visibility 10 miles    
Events      
Averages and records for this station are not official NWS values.
T = Trace of Precipitation, MM = Missing Value Source: NWS Daily Summary

Daily Weather History Graph

Daily Weather History Graph

Search for Another Location

Airport:

Trip Planner

Search our weather history database for the weather conditions in past years. The results will help you decide how hot, cold, wet, or windy it might be!

Date:

Astronomy

Apr. 09, 2014 Rise Set
Actual Time 7:13 AM CDT 7:58 PM CDT
Civil Twilight 6:49 AM CDT 8:23 PM CDT
Nautical Twilight 6:20 AM CDT 8:52 PM CDT
Astronomical Twilight 5:51 AM CDT 9:21 PM CDT
Moon 3:08 PM CDT (4/9) 3:43 AM CDT (4/9)
Length of Visible Light 13h 33m
Length of Day
12h 44m
Waxing Gibbous, 72% of the Moon is Illuminated
Apr 9
Waxing Gibbous
Apr 15
Full
Apr 22
Last Quarter
Apr 29
New
May 6
First Quarter

Hourly Weather History & Observations

Time (CDT) Temp. Dew Point Humidity Pressure Visibility Wind Dir Wind Speed Gust Speed Precip Events Conditions
12:15 AM 48.2 °F 39.2 °F 71% 30.23 in 10.0 mi Calm Calm - N/A   Clear
12:35 AM 50.0 °F 39.2 °F 66% 30.23 in 10.0 mi Calm Calm - N/A   Clear
12:55 AM 48.2 °F 39.2 °F 71% 30.23 in 10.0 mi Calm Calm - N/A   Clear
1:15 AM 50.0 °F 37.4 °F 62% 30.23 in 10.0 mi Calm Calm - N/A   Clear
1:35 AM 53.6 °F 37.4 °F 54% 30.23 in 10.0 mi Calm Calm - N/A   Clear
1:55 AM 51.8 °F 37.4 °F 58% 30.23 in 10.0 mi Calm Calm - N/A   Clear
2:15 AM 51.8 °F 35.6 °F 54% 30.23 in 10.0 mi Calm Calm - N/A   Clear
2:35 AM 51.8 °F 35.6 °F 54% 30.23 in 10.0 mi Calm Calm - N/A   Clear
2:55 AM 51.8 °F 35.6 °F 54% 30.23 in 10.0 mi Calm Calm - N/A   Clear
3:15 AM 50.0 °F 35.6 °F 58% 30.23 in 10.0 mi Calm Calm - N/A   Clear
3:35 AM 50.0 °F 35.6 °F 58% 30.23 in 10.0 mi Calm Calm - N/A   Clear
3:55 AM 50.0 °F 37.4 °F 62% 30.23 in 10.0 mi Calm Calm - N/A   Clear
4:15 AM 48.2 °F 37.4 °F 66% 30.23 in 10.0 mi Calm Calm - N/A   Clear
4:35 AM 50.0 °F 37.4 °F 62% 30.22 in 10.0 mi Calm Calm - N/A   Clear
4:55 AM 50.0 °F 37.4 °F 62% 30.23 in 10.0 mi Calm Calm - N/A   Clear
5:15 AM 50.0 °F 35.6 °F 58% 30.23 in 10.0 mi Calm Calm - N/A   Clear
5:35 AM 48.2 °F 35.6 °F 62% 30.23 in 10.0 mi Calm Calm - N/A   Clear
5:55 AM 44.6 °F 37.4 °F 76% 30.23 in 10.0 mi Calm Calm - N/A   Clear
6:15 AM 44.6 °F 37.4 °F 76% 30.24 in 10.0 mi Calm Calm - N/A   Clear
6:35 AM 42.8 °F 35.6 °F 76% 30.24 in 10.0 mi Calm Calm - N/A   Clear
6:55 AM 42.8 °F 37.4 °F 81% 30.25 in 10.0 mi Calm Calm - N/A   Clear
7:15 AM 44.6 °F 35.6 °F 71% 30.26 in 10.0 mi Calm Calm - N/A   Clear
7:35 AM 44.6 °F 37.4 °F 76% 30.26 in 10.0 mi Calm Calm - N/A   Clear
7:55 AM 46.4 °F 37.4 °F 71% 30.27 in 10.0 mi Calm Calm - N/A   Clear
8:15 AM 51.8 °F 41.0 °F 67% 30.27 in 10.0 mi Calm Calm - N/A   Clear
8:35 AM 55.4 °F 41.0 °F 58% 30.27 in 10.0 mi Calm Calm - N/A   Clear
8:55 AM 57.2 °F 39.2 °F 51% 30.27 in 10.0 mi ESE 5.8 mph - N/A   Clear
9:15 AM 60.8 °F 39.2 °F 45% 30.28 in 10.0 mi ESE 5.8 mph - N/A   Clear
9:35 AM 62.6 °F 39.2 °F 42% 30.28 in 10.0 mi Calm Calm - N/A   Clear
9:55 AM 64.4 °F 37.4 °F 37% 30.28 in 10.0 mi Calm Calm - N/A   Clear
10:15 AM 66.2 °F 39.2 °F 37% 30.28 in 10.0 mi SE 5.8 mph - N/A   Clear
10:35 AM 71.6 °F 37.4 °F 29% 30.28 in 10.0 mi South 6.9 mph - N/A   Clear
10:55 AM 73.4 °F 33.8 °F 23% 30.27 in 10.0 mi SSW 13.8 mph - N/A   Clear
11:15 AM 73.4 °F 33.8 °F 23% 30.27 in 10.0 mi South 11.5 mph - N/A   Clear
11:35 AM 75.2 °F 33.8 °F 22% 30.26 in 10.0 mi South 8.1 mph 17.3 mph N/A   Clear
11:55 AM 77.0 °F 35.6 °F 22% 30.25 in 10.0 mi South 10.4 mph - N/A   Clear
12:15 PM 78.8 °F 35.6 °F 21% 30.25 in 10.0 mi SSW 10.4 mph 17.3 mph N/A   Clear
12:35 PM 80.6 °F 33.8 °F 18% 30.23 in 10.0 mi South 11.5 mph - N/A   Clear
12:55 PM 82.4 °F 33.8 °F 17% 30.22 in 10.0 mi SW 9.2 mph - N/A   Clear
1:15 PM 82.4 °F 33.8 °F 17% 30.21 in 10.0 mi SSW 12.7 mph 17.3 mph N/A   Clear
1:35 PM 84.2 °F 33.8 °F 16% 30.20 in 10.0 mi SSW 11.5 mph - N/A   Clear
1:55 PM 84.2 °F 32.0 °F 15% 30.18 in 10.0 mi SSW 9.2 mph - N/A   Clear
2:15 PM 86.0 °F 32.0 °F 14% 30.17 in 10.0 mi SW 12.7 mph 16.1 mph N/A   Clear
2:35 PM 86.0 °F 32.0 °F 14% 30.16 in 10.0 mi SSW 8.1 mph - N/A   Clear
2:55 PM 86.0 °F 32.0 °F 14% 30.15 in 10.0 mi WSW 8.1 mph 16.1 mph N/A   Clear
3:15 PM 87.8 °F 32.0 °F 14% 30.14 in 10.0 mi WSW 6.9 mph - N/A   Clear
3:35 PM 87.8 °F 32.0 °F 14% 30.12 in 10.0 mi SW 8.1 mph - N/A   Clear
3:55 PM 87.8 °F 32.0 °F 14% 30.11 in 10.0 mi SSW 8.1 mph - N/A   Clear
4:15 PM 87.8 °F 32.0 °F 14% 30.10 in 10.0 mi SW 10.4 mph - N/A   Clear
4:35 PM 87.8 °F 32.0 °F 14% 30.09 in 10.0 mi South 10.4 mph - N/A   Clear
4:55 PM 87.8 °F 32.0 °F 14% 30.08 in 10.0 mi South 10.4 mph 16.1 mph N/A   Clear
5:15 PM 87.8 °F 32.0 °F 14% 30.08 in 10.0 mi SSW 6.9 mph - N/A   Clear
5:35 PM 87.8 °F 30.2 °F 13% 30.07 in 10.0 mi South 10.4 mph - N/A   Clear
5:55 PM 87.8 °F 32.0 °F 14% 30.06 in 10.0 mi South 8.1 mph - N/A   Clear
6:15 PM 87.8 °F 32.0 °F 14% 30.06 in 10.0 mi South 5.8 mph - N/A   Clear
6:35 PM 86.0 °F 32.0 °F 14% 30.06 in 10.0 mi South 11.5 mph 17.3 mph N/A   Clear
6:55 PM 84.2 °F 32.0 °F 15% 30.06 in 10.0 mi South 10.4 mph - N/A   Clear
7:15 PM 84.2 °F 32.0 °F 15% 30.06 in 10.0 mi South 8.1 mph - N/A   Clear
7:35 PM 82.4 °F 32.0 °F 16% 30.06 in 10.0 mi South 8.1 mph - N/A   Clear
7:55 PM 78.8 °F 33.8 °F 20% 30.06 in 10.0 mi South 6.9 mph - N/A   Clear
8:15 PM 78.8 °F 33.8 °F 20% 30.07 in 10.0 mi SSE 6.9 mph - N/A   Clear
8:35 PM 75.2 °F 35.6 °F 24% 30.08 in 10.0 mi SSE 6.9 mph - N/A   Clear
8:55 PM 75.2 °F 35.6 °F 24% 30.08 in 10.0 mi SSE 5.8 mph - N/A   Clear
9:15 PM 73.4 °F 35.6 °F 25% 30.09 in 10.0 mi SSE 5.8 mph - N/A   Clear
9:35 PM 73.4 °F 35.6 °F 25% 30.09 in 10.0 mi SSE 6.9 mph - N/A   Clear
9:55 PM 71.6 °F 35.6 °F 27% 30.10 in 10.0 mi SE 3.5 mph - N/A   Clear
10:15 PM 69.8 °F 37.4 °F 31% 30.11 in 10.0 mi Calm Calm - N/A   Clear
10:35 PM 69.8 °F 37.4 °F 31% 30.12 in 10.0 mi SSE 3.5 mph - N/A   Clear
10:55 PM 69.8 °F 37.4 °F 31% 30.13 in 10.0 mi SE 5.8 mph - N/A   Clear
11:15 PM 71.6 °F 41.0 °F 33% 30.12 in 10.0 mi SSE 8.1 mph - N/A   Clear
11:35 PM 69.8 °F 46.4 °F 43% 30.12 in 10.0 mi SSE 6.9 mph - N/A   Clear
11:55 PM 69.8 °F 46.4 °F 43% 30.12 in 10.0 mi SSE 5.8 mph - N/A   Clear